sat.trackr.live / text

‹ back to catalog

EUTELSAT 36D

NORAD 59346 · 2024-059A

PAYLOAD ACTIVE UNKNOWN

§ Identity

Operator
Country
EUTE
Launch date
2024-03-30
Launch site
AFETR
Launch vehicle
Mass (kg)
RCS (m²)

Purposes: comms

External: N2YO · Heavens-Above · Gunter

§ Orbital elements

Epoch: 2026-09-19T05:10:05.666304Z

Period
1,436.08 min
Inclination
0.0115°
Eccentricity
0.0000130
Mean motion
1.00273241 rev/d
Perigee alt
35,785.6 km
Apogee alt
35,786.7 km
Semi-major
42,164.3 km
B*
0.0000e+0
RAAN
159.8428°
Arg perigee
315.2085°
Mean anomaly
356.4780°
Rev number
909

§ Raw data

EUTELSAT 36D1 59346U 24059A   26262.21534336  .00000151  00000+0  00000+0 0  99972 59346   0.0115 159.8428 0000130 315.2085 356.4780  1.00273241  9092

JSON: /api/v1/satellites/59346 · /tle

For live sub-satellite position, see the globe view (requires WebGL).

§ Visibility from observer

Set your observer location to see the next 7 days of passes ≥ 10°. The values pass through the URL so the page stays shareable.

No JS? Fill the form by hand. The geolocation button needs JavaScript.